TimeCST,TemperatureF,Dew PointF,Humidity,Sea Level PressureIn,VisibilityMPH,Wind Direction,Wind SpeedMPH,Gust SpeedMPH,PrecipitationIn,Events,Conditions,WindDirDegrees,DateUTC
12:15 AM,30.2,14.0,51,29.96,10.0,WNW,11.5,-,N/A,,Clear,300,2011-11-16 06:15:00
12:35 AM,28.4,15.8,59,29.97,10.0,WNW,10.4,-,N/A,,Clear,300,2011-11-16 06:35:00
12:55 AM,28.4,15.8,59,29.98,10.0,WNW,9.2,-,N/A,,Clear,290,2011-11-16 06:55:00
1:15 AM,28.4,15.8,59,29.99,10.0,WNW,10.4,-,N/A,,Clear,300,2011-11-16 07:15:00
1:35 AM,28.4,15.8,59,29.99,10.0,WNW,9.2,-,N/A,,Clear,300,2011-11-16 07:35:00
1:55 AM,26.6,15.8,64,29.99,10.0,WNW,8.1,-,N/A,,Clear,290,2011-11-16 07:55:00
2:15 AM,26.6,15.8,64,30.00,10.0,West,6.9,-,N/A,,Clear,280,2011-11-16 08:15:00
2:35 AM,26.6,15.8,64,30.00,10.0,WNW,9.2,-,N/A,,Clear,300,2011-11-16 08:35:00
2:55 AM,26.6,15.8,64,30.00,10.0,NW,10.4,-,N/A,,Clear,310,2011-11-16 08:55:00
3:15 AM,26.6,15.8,64,30.00,10.0,WNW,9.2,-,N/A,,Clear,300,2011-11-16 09:15:00
3:35 AM,24.8,15.8,69,30.00,10.0,WNW,5.8,-,N/A,,Clear,290,2011-11-16 09:35:00
3:55 AM,24.8,14.0,64,30.00,10.0,West,8.1,-,N/A,,Clear,280,2011-11-16 09:55:00
4:15 AM,24.8,14.0,64,30.01,10.0,West,6.9,-,N/A,,Clear,280,2011-11-16 10:15:00
4:35 AM,24.8,15.8,69,30.01,10.0,WNW,8.1,-,N/A,,Clear,290,2011-11-16 10:35:00
5:15 AM,23.0,14.0,68,30.04,10.0,West,6.9,-,N/A,,Clear,280,2011-11-16 11:15:00
5:35 AM,24.8,15.8,69,30.04,10.0,West,6.9,-,N/A,,Clear,280,2011-11-16 11:35:00
6:15 AM,24.8,15.8,69,30.05,10.0,WNW,9.2,-,N/A,,Clear,290,2011-11-16 12:15:00
6:35 AM,24.8,15.8,69,30.07,10.0,WNW,9.2,-,N/A,,Clear,290,2011-11-16 12:35:00
6:55 AM,26.6,15.8,64,30.07,10.0,WNW,9.2,-,N/A,,Clear,290,2011-11-16 12:55:00
7:15 AM,24.8,14.0,64,30.08,10.0,West,9.2,-,N/A,,Clear,280,2011-11-16 13:15:00
7:35 AM,24.8,14.0,64,30.09,10.0,West,8.1,-,N/A,,Clear,280,2011-11-16 13:35:00
7:55 AM,26.6,15.8,64,30.10,10.0,West,8.1,-,N/A,,Clear,280,2011-11-16 13:55:00
8:15 AM,26.6,15.8,64,30.11,10.0,West,11.5,-,N/A,,Clear,280,2011-11-16 14:15:00
8:35 AM,26.6,15.8,64,30.13,10.0,West,9.2,-,N/A,,Clear,270,2011-11-16 14:35:00
8:55 AM,28.4,15.8,59,30.13,10.0,West,11.5,-,N/A,,Clear,280,2011-11-16 14:55:00
9:15 AM,28.4,15.8,59,30.13,10.0,West,11.5,-,N/A,,Clear,280,2011-11-16 15:15:00
9:35 AM,30.2,14.0,51,30.14,10.0,WNW,12.7,-,N/A,,Clear,290,2011-11-16 15:35:00
10:15 AM,32.0,12.2,44,30.15,10.0,WNW,11.5,-,N/A,,Clear,290,2011-11-16 16:15:00
10:35 AM,33.8,12.2,41,30.15,10.0,WNW,12.7,-,N/A,,Clear,290,2011-11-16 16:35:00
10:55 AM,33.8,10.4,38,30.15,10.0,WNW,9.2,-,N/A,,Clear,300,2011-11-16 16:55:00
11:15 AM,35.6,10.4,35,30.14,10.0,WNW,12.7,-,N/A,,Clear,300,2011-11-16 17:15:00
11:35 AM,35.6,8.6,33,30.14,10.0,WNW,11.5,-,N/A,,Clear,300,2011-11-16 17:35:00
11:55 AM,35.6,10.4,35,30.13,10.0,West,12.7,16.1,N/A,,Clear,260,2011-11-16 17:55:00
12:15 PM,37.4,8.6,30,30.13,10.0,WNW,12.7,18.4,N/A,,Clear,290,2011-11-16 18:15:00
12:35 PM,39.2,8.6,28,30.12,10.0,West,13.8,21.9,N/A,,Clear,280,2011-11-16 18:35:00
12:55 PM,39.2,6.8,26,30.12,10.0,West,12.7,-,N/A,,Clear,280,2011-11-16 18:55:00
1:15 PM,39.2,6.8,26,30.11,10.0,West,13.8,21.9,N/A,,Clear,270,2011-11-16 19:15:00
1:35 PM,41.0,5.0,23,30.10,10.0,West,15.0,21.9,N/A,,Clear,280,2011-11-16 19:35:00
1:55 PM,41.0,3.2,21,30.10,10.0,West,16.1,21.9,N/A,,Clear,270,2011-11-16 19:55:00
2:15 PM,41.0,-0.4,18,30.09,10.0,West,17.3,25.3,N/A,,Scattered Clouds,270,2011-11-16 20:15:00
2:19 PM,42.8,-0.4,16,30.09,10.0,West,16.1,25.3,N/A,,Clear,270,2011-11-16 20:19:00
2:35 PM,42.8,-9.4,11,30.09,10.0,West,17.3,26.5,N/A,,Clear,270,2011-11-16 20:35:00
2:55 PM,42.8,-7.6,12,30.09,10.0,West,18.4,23.0,N/A,,Clear,270,2011-11-16 20:55:00
3:15 PM,41.0,-9.4,12,30.10,10.0,West,19.6,26.5,N/A,,Clear,280,2011-11-16 21:15:00
3:35 PM,41.0,-9.4,12,30.10,10.0,West,17.3,23.0,N/A,,Clear,280,2011-11-16 21:35:00
3:55 PM,39.2,-9.4,12,30.10,10.0,West,15.0,24.2,N/A,,Clear,270,2011-11-16 21:55:00
4:15 PM,39.2,-7.6,14,30.10,10.0,West,15.0,19.6,N/A,,Scattered Clouds,270,2011-11-16 22:15:00
4:35 PM,39.2,-5.8,15,30.10,10.0,West,16.1,21.9,N/A,,Mostly Cloudy,260,2011-11-16 22:35:00
4:55 PM,37.4,-2.2,19,30.10,5.0,West,12.7,-,N/A,,Haze,280,2011-11-16 22:55:00
5:15 PM,37.4,-2.2,19,30.11,10.0,West,13.8,-,N/A,,Scattered Clouds,280,2011-11-16 23:15:00
5:35 PM,37.4,-0.4,20,30.11,10.0,West,13.8,19.6,N/A,,Mostly Cloudy,280,2011-11-16 23:35:00
5:55 PM,35.6,1.4,24,30.12,10.0,West,10.4,-,N/A,,Scattered Clouds,280,2011-11-16 23:55:00
6:35 PM,33.8,3.2,28,30.14,10.0,West,15.0,-,N/A,,Scattered Clouds,280,2011-11-17 00:35:00
6:55 PM,33.8,3.2,28,30.15,10.0,WNW,13.8,-,N/A,,Clear,290,2011-11-17 00:55:00
7:35 PM,30.2,6.8,37,30.15,10.0,WNW,13.8,-,N/A,,Clear,300,2011-11-17 01:35:00
7:55 PM,30.2,6.8,37,30.16,10.0,WNW,11.5,-,N/A,,Clear,290,2011-11-17 01:55:00
8:15 PM,30.2,6.8,37,30.16,10.0,WNW,11.5,-,N/A,,Clear,290,2011-11-17 02:15:00
8:55 PM,26.6,8.6,47,30.17,10.0,West,8.1,-,N/A,,Clear,280,2011-11-17 02:55:00
9:15 PM,26.6,8.6,47,30.17,10.0,West,9.2,-,N/A,,Clear,280,2011-11-17 03:15:00
9:35 PM,26.6,6.8,43,30.17,10.0,West,9.2,-,N/A,,Clear,280,2011-11-17 03:35:00
9:55 PM,26.6,6.8,43,30.17,10.0,West,9.2,-,N/A,,Clear,280,2011-11-17 03:55:00
10:15 PM,24.8,8.6,50,30.17,10.0,West,6.9,-,N/A,,Clear,280,2011-11-17 04:15:00
10:35 PM,24.8,8.6,50,30.16,10.0,West,8.1,-,N/A,,Clear,270,2011-11-17 04:35:00
10:55 PM,24.8,8.6,50,30.16,10.0,West,8.1,-,N/A,,Clear,270,2011-11-17 04:55:00
11:15 PM,23.0,8.6,54,30.16,10.0,West,6.9,-,N/A,,Clear,270,2011-11-17 05:15:00
11:35 PM,21.2,8.6,58,30.16,10.0,West,6.9,-,N/A,,Clear,280,2011-11-17 05:35:00
11:55 PM,21.2,8.6,58,30.16,10.0,West,6.9,-,N/A,,Clear,280,2011-11-17 05:55:00